| time (UTC) | temp F | wind direction | speed MPH | gust MPH | rain 1hr in | rain 24hr in | rain mn in | humidity % | barometer mb |
| 20260506221600 | 77 | 317 | 0.0 | 5.0 | 0.00 | 0.00 | 0.00 | 53 | 1017.6 |
| 20260506220049 | 77 | 317 | 2.0 | 6.0 | 0.00 | 0.00 | 0.00 | 50 | 1017.9 |
| 20260506214547 | 77 | 355 | 0.0 | 5.0 | 0.00 | 0.00 | 0.00 | 52 | 1018.1 |
| 20260506213048 | 76 | 67 | 1.0 | 5.0 | 0.00 | 0.00 | 0.00 | 54 | 1018.2 |
| 20260506211545 | 75 | 311 | 0.0 | 5.0 | 0.00 | 0.00 | 0.00 | 55 | 1018.4 |
| 20260506210044 | 75 | 323 | 1.0 | 6.0 | 0.00 | 0.00 | 0.00 | 56 | 1018.6 |
| 20260506204534 | 74 | 80 | 0.0 | 4.0 | 0.00 | 0.00 | 0.00 | 58 | 1018.7 |
| 20260506203033 | 73 | 333 | 1.0 | 5.0 | 0.00 | 0.00 | 0.00 | 58 | 1018.8 |
| 20260506201535 | 73 | 21 | 0.0 | 4.0 | 0.00 | 0.00 | 0.00 | 60 | 1019.1 |
| 20260506200030 | 72 | 39 | 0.0 | 5.0 | 0.00 | 0.00 | 0.00 | 60 | 1019.3 |
| 20260506194524 | 72 | 306 | 0.0 | 8.0 | 0.00 | 0.00 | 0.00 | 61 | 1019.4 |
| 20260506193032 | 72 | 61 | 1.0 | 3.0 | 0.00 | 0.00 | 0.00 | 61 | 1019.5 |
| 20260506191514 | 70 | 332 | 1.0 | 4.0 | 0.00 | 0.00 | 0.00 | 63 | 1019.6 |
| 20260506190011 | 69 | 103 | 0.0 | 3.0 | 0.00 | 0.00 | 0.00 | 65 | 1019.8 |
| 20260506184507 | 68 | 132 | 1.0 | 5.0 | 0.00 | 0.00 | 0.00 | 66 | 1019.9 |
| 20260506183003 | 67 | 76 | 1.0 | 4.0 | 0.00 | 0.00 | 0.00 | 67 | 1020.0 |
| 20260506181607 | 66 | 350 | 0.0 | 7.0 | 0.00 | 0.00 | 0.00 | 69 | 1020.2 |
| 20260506180055 | 65 | 315 | 0.0 | 3.0 | 0.00 | 0.00 | 0.00 | 71 | 1020.2 |
| 20260506174550 | 63 | 211 | 0.0 | 4.0 | 0.00 | 0.00 | 0.00 | 76 | 1020.4 |
| 20260506173113 | 62 | 240 | 0.0 | 2.0 | 0.00 | 0.00 | 0.00 | 78 | 1020.5 |
| 20260506171545 | 60 | 238 | 0.0 | 2.0 | 0.00 | 0.00 | 0.00 | 79 | 1020.6 |
| 20260506170051 | 60 | 255 | 0.0 | 0.0 | 0.00 | 0.00 | 0.00 | 81 | 1020.7 |
| 20260506164538 | 59 | 255 | 0.0 | 1.0 | 0.00 | 0.00 | 0.00 | 82 | 1020.6 |
| 20260506163041 | 58 | 255 | 0.0 | 0.0 | 0.00 | 0.00 | 0.00 | 84 | 1020.7 |
| 20260506161532 | 58 | 255 | 0.0 | 1.0 | 0.00 | 0.00 | 0.00 | 86 | 1020.7 |
| 20260506160031 | 57 | 254 | 0.0 | 0.0 | 0.00 | 0.00 | 0.00 | 88 | 1020.7 |
| 20260506154528 | 56 | 254 | 0.0 | 0.0 | 0.00 | 0.00 | 0.00 | 89 | 1020.7 |
| 20260506153027 | 56 | 254 | 0.0 | 0.0 | 0.00 | 0.00 | 0.00 | 90 | 1020.5 |
| 20260506151525 | 55 | 254 | 0.0 | 0.0 | 0.00 | 0.00 | 0.00 | 91 | 1020.5 |
| 20260506150025 | 55 | 254 | 0.0 | 0.0 | 0.00 | 0.00 | 0.00 | 91 | 1020.6 |
| 20260506144524 | 54 | 254 | 0.0 | 0.0 | 0.00 | 0.00 | 0.00 | 92 | 1020.5 |
| 20260506143027 | 54 | 254 | 0.0 | 0.0 | 0.00 | 0.00 | 0.00 | 91 | 1020.4 |
| 20260506141521 | 53 | 254 | 0.0 | 0.0 | 0.00 | 0.00 | 0.00 | 91 | 1020.4 |
| 20260506140022 | 52 | 254 | 0.0 | 0.0 | 0.00 | 0.00 | 0.00 | 91 | 1020.3 |
| 20260506134518 | 52 | 254 | 0.0 | 0.0 | 0.00 | 0.00 | 0.00 | 91 | 1020.0 |
| 20260506133016 | 51 | 254 | 0.0 | 0.0 | 0.00 | 0.00 | 0.00 | 91 | 1019.8 |
| 20260506131515 | 51 | 254 | 0.0 | 0.0 | 0.00 | 0.00 | 0.00 | 91 | 1019.7 |
| 20260506130015 | 51 | 254 | 0.0 | 0.0 | 0.00 | 0.00 | 0.00 | 91 | 1019.6 |
| 20260506124513 | 51 | 254 | 0.0 | 0.0 | 0.00 | 0.00 | 0.00 | 91 | 1019.5 |
| 20260506123012 | 51 | 254 | 0.0 | 0.0 | 0.00 | 0.00 | 0.00 | 91 | 1019.4 |
| 20260506121510 | 51 | 254 | 0.0 | 0.0 | 0.00 | 0.00 | 0.00 | 91 | 1019.5 |
| 20260506120009 | 51 | 254 | 0.0 | 0.0 | 0.00 | 0.00 | 0.00 | 91 | 1019.3 |
| 20260506114505 | 51 | 254 | 0.0 | 0.0 | 0.00 | 0.00 | 0.00 | 91 | 1019.2 |
| 20260506113004 | 51 | 254 | 0.0 | 0.0 | 0.00 | 0.00 | 0.00 | 91 | 1019.0 |
| 20260506111600 | 52 | 254 | 0.0 | 0.0 | 0.00 | 0.00 | 0.00 | 91 | 1019.0 |
| 20260506110058 | 53 | 254 | 0.0 | 0.0 | 0.00 | 0.01 | 0.00 | 90 | 1019.0 |
| 20260506104623 | 53 | 254 | 0.0 | 0.0 | 0.00 | 0.01 | 0.00 | 89 | 1018.8 |
| 20260506103053 | 54 | 254 | 0.0 | 0.0 | 0.00 | 0.01 | 0.00 | 89 | 1018.8 |
| 20260506101550 | 55 | 254 | 0.0 | 0.0 | 0.00 | 0.01 | 0.00 | 89 | 1018.8 |
| 20260506100047 | 56 | 254 | 0.0 | 0.0 | 0.00 | 0.01 | 0.00 | 88 | 1018.9 |
| 20260506094546 | 56 | 254 | 0.0 | 0.0 | 0.00 | 0.01 | 0.00 | 88 | 1018.8 |
| 20260506093045 | 56 | 254 | 0.0 | 0.0 | 0.00 | 0.01 | 0.00 | 88 | 1018.8 |
| 20260506091544 | 56 | 254 | 0.0 | 0.0 | 0.00 | 0.01 | 0.00 | 87 | 1018.8 |
| 20260506090047 | 56 | 254 | 0.0 | 0.0 | 0.00 | 0.01 | 0.00 | 87 | 1018.7 |
| 20260506084542 | 56 | 254 | 0.0 | 0.0 | 0.00 | 0.01 | 0.00 | 87 | 1018.7 |
| 20260506083044 | 56 | 254 | 0.0 | 0.0 | 0.00 | 0.01 | 0.00 | 87 | 1018.8 |
| 20260506081541 | 56 | 254 | 0.0 | 0.0 | 0.00 | 0.01 | 0.00 | 87 | 1018.9 |
| 20260506073036 | 56 | 254 | 0.0 | 0.0 | 0.00 | 0.01 | 0.00 | 86 | 1018.5 |
| 20260506071534 | 56 | 254 | 0.0 | 0.0 | 0.00 | 0.01 | 0.00 | 85 | 1018.4 |
| 20260506061528 | 57 | 254 | 0.0 | 0.0 | 0.00 | 0.01 | 0.01 | 83 | 1018.1 |
| 20260506044526 | 58 | 274 | 0.0 | 0.0 | 0.00 | 0.01 | 0.01 | 82 | 1017.3 |
| 20260506043021 | 58 | 274 | 0.0 | 1.0 | 0.00 | 0.01 | 0.01 | 81 | 1017.2 |
| 20260506041519 | 58 | 291 | 0.0 | 1.0 | 0.00 | 0.01 | 0.01 | 81 | 1017.1 |
| 20260506040028 | 58 | 277 | 0.0 | 1.0 | 0.00 | 0.01 | 0.01 | 82 | 1016.8 |
| 20260506034515 | 58 | 279 | 0.0 | 3.0 | 0.00 | 0.01 | 0.01 | 81 | 1016.7 |
| 20260506033014 | 58 | 277 | 0.0 | 3.0 | 0.00 | 0.01 | 0.01 | 80 | 1016.4 |
| 20260506031511 | 59 | 273 | 0.0 | 4.0 | 0.00 | 0.01 | 0.01 | 80 | 1016.3 |
| 20260506030012 | 59 | 241 | 0.0 | 3.0 | 0.00 | 0.01 | 0.01 | 79 | 1016.1 |
| 20260506024523 | 59 | 251 | 0.0 | 4.0 | 0.00 | 0.01 | 0.01 | 78 | 1015.9 |
| 20260506023008 | 59 | 232 | 0.0 | 3.0 | 0.00 | 0.01 | 0.01 | 77 | 1015.8 |
| 20260506021508 | 60 | 272 | 0.0 | 7.0 | 0.00 | 0.01 | 0.01 | 77 | 1015.7 |
| 20260506020009 | 60 | 278 | 1.0 | 5.0 | 0.00 | 0.01 | 0.01 | 76 | 1015.7 |
| 20260506014515 | 60 | 329 | 1.0 | 8.0 | 0.00 | 0.01 | 0.01 | 75 | 1015.6 |
| 20260506013007 | 60 | 292 | 0.0 | 5.0 | 0.00 | 0.01 | 0.01 | 75 | 1015.7 |
| 20260506011513 | 60 | 267 | 1.0 | 3.0 | 0.00 | 0.01 | 0.01 | 75 | 1015.6 |
| 20260506010010 | 61 | 249 | 1.0 | 6.0 | 0.00 | 0.01 | 0.01 | 75 | 1015.5 |
| 20260506004507 | 61 | 277 | 0.0 | 6.0 | 0.00 | 0.01 | 0.01 | 75 | 1015.5 |
| 20260506003005 | 61 | 289 | 0.0 | 5.0 | 0.00 | 0.01 | 0.01 | 75 | 1015.5 |
| 20260506001503 | 61 | 348 | 0.0 | 9.0 | 0.00 | 0.01 | 0.01 | 74 | 1015.3 |
| 20260506000004 | 61 | 265 | 0.0 | 6.0 | 0.00 | 0.01 | 0.01 | 74 | 1015.2 |
| 20260505234508 | 62 | 265 | 0.0 | 8.0 | 0.00 | 0.01 | 0.01 | 74 | 1015.2 |
| 20260505233002 | 63 | 205 | 2.0 | 6.0 | 0.00 | 0.01 | 0.01 | 72 | 1015.2 |
| 20260505231503 | 63 | 317 | 0.0 | 4.0 | 0.00 | 0.01 | 0.01 | 70 | 1015.2 |
| 20260505230002 | 64 | 227 | 0.0 | 4.0 | 0.00 | 0.01 | 0.01 | 69 | 1015.2 |
| 20260505224502 | 64 | 268 | 0.0 | 3.0 | 0.00 | 0.01 | 0.01 | 68 | 1015.1 |
| 20260505223113 | 64 | 218 | 0.0 | 3.0 | 0.00 | 0.01 | 0.01 | 67 | 1015.3 |